Le Mars, IA

6:01 AM CST on February 11, 2016 (GMT -0600)
Le Mars Municipal

Weather History for KLRJ - January, 2013

Change the Weather History Date:

Wednesday, January 16, 2013

  Actual Average Record
Temperature  
Mean Temperature 36 °F -  
Max Temperature 50 °F 27 °F 54 °F (1990)
Min Temperature 21 °F 7 °F -23 °F (2007)
Degree Days  
Heating Degree Days 30    
Moisture  
Dew Point 24 °F    
Average Humidity 65    
Maximum Humidity 86    
Minimum Humidity 43    
Precipitation  
Precipitation 0.00 in - - ()
Sea Level Pressure  
Sea Level Pressure 29.96 in    
Wind  
Wind Speed 10 mph (WNW)    
Max Wind Speed 21 mph    
Max Gust Speed 30 mph    
Visibility 10 miles    
Events      
Averages and records for this station are not official NWS values.
T = Trace of Precipitation, MM = Missing Value Source: NWS Daily Summary

Daily Weather History Graph

Daily Weather History Graph

Search for Another Location

Airport or City:

Trip Planner

Search our weather history database for the weather conditions in past years. The results will help you decide how hot, cold, wet, or windy it might be!

Date:

Astronomy

Jan. 16, 2013 Rise Set
Actual Time 7:51 AM CST 5:17 PM CST
Civil Twilight 7:20 AM CST 5:49 PM CST
Nautical Twilight 6:45 AM CST 6:23 PM CST
Astronomical Twilight 6:12 AM CST 6:57 PM CST
Moon 10:19 AM CST (1/16) 11:20 PM CST (1/16)
Length of Visible Light 10h 28m
Length of Day
9h 25m
Waxing Crescent, 28% of the Moon is Illuminated
Jan 16
Waxing Crescent
Jan 18
First Quarter
Jan 26
Full
Feb 3
Last Quarter
Feb 10
New

Hourly Weather History & Observations

Time (CST) Temp. Windchill Dew Point Humidity Pressure Visibility Wind Dir Wind Speed Gust Speed Precip Events Conditions
12:15 AM 23.0 °F 12.4 °F 15.8 °F 74% 29.90 in 10.0 mi SSW 10.4 mph - N/A   Clear
12:35 AM 21.2 °F 11.7 °F 15.8 °F 80% 29.90 in 10.0 mi SSW 8.1 mph - N/A   Clear
12:55 AM 21.2 °F 11.7 °F 14.0 °F 74% 29.89 in 10.0 mi SSW 8.1 mph - N/A   Clear
1:15 AM 23.0 °F 15.8 °F 15.8 °F 74% 29.89 in 10.0 mi SSW 5.8 mph - N/A   Mostly Cloudy
1:35 AM 24.8 °F 16.1 °F 15.8 °F 69% 29.87 in 10.0 mi SSW 8.1 mph - N/A   Overcast
1:55 AM 26.6 °F 17.5 °F 15.8 °F 64% 29.86 in 10.0 mi SSW 9.2 mph - N/A   Overcast
2:15 AM 26.6 °F 17.5 °F 15.8 °F 64% 29.85 in 10.0 mi SW 9.2 mph - N/A   Overcast
2:35 AM 26.6 °F 16.8 °F 15.8 °F 64% 29.85 in 10.0 mi SW 10.4 mph - N/A   Overcast
3:15 AM 26.6 °F 16.8 °F 15.8 °F 64% 29.84 in 10.0 mi SSW 10.4 mph - N/A   Overcast
3:35 AM 26.6 °F 16.8 °F 17.6 °F 69% 29.84 in 10.0 mi SSW 10.4 mph - N/A   Overcast
3:55 AM 26.6 °F 16.8 °F 17.6 °F 69% 29.83 in 10.0 mi SSW 10.4 mph - N/A   Overcast
4:15 AM 28.4 °F 19.7 °F 17.6 °F 64% 29.82 in 10.0 mi SSW 9.2 mph - N/A   Overcast
4:35 AM 28.4 °F 18.5 °F 19.4 °F 69% 29.81 in 10.0 mi SSW 11.5 mph - N/A   Overcast
4:55 AM 28.4 °F 19.7 °F 19.4 °F 69% 29.81 in 10.0 mi SSW 9.2 mph - N/A   Overcast
5:15 AM 28.4 °F 20.4 °F 19.4 °F 69% 29.81 in 10.0 mi SSW 8.1 mph - N/A   Overcast
5:35 AM 30.2 °F 22.6 °F 21.2 °F 69% 29.80 in 10.0 mi SSW 8.1 mph - N/A   Overcast
6:35 AM 30.2 °F 23.4 °F 24.8 °F 80% 29.81 in 10.0 mi SW 6.9 mph - N/A   Mostly Cloudy
6:55 AM 28.4 °F 21.2 °F 23.0 °F 80% 29.82 in 10.0 mi SW 6.9 mph - N/A   Scattered Clouds
7:15 AM 30.2 °F 23.4 °F 24.8 °F 80% 29.83 in 10.0 mi SSW 6.9 mph - N/A   Mostly Cloudy
7:35 AM 30.2 °F 24.3 °F 24.8 °F 80% 29.84 in 10.0 mi SSW 5.8 mph - N/A   Mostly Cloudy
7:55 AM 30.2 °F - 26.6 °F 86% 29.84 in 10.0 mi Calm Calm - N/A   Scattered Clouds
8:15 AM 33.8 °F - 28.4 °F 81% 29.85 in 10.0 mi Calm Calm - N/A   Clear
8:35 AM 35.6 °F 32.8 °F 28.4 °F 75% 29.86 in 10.0 mi West 3.5 mph - N/A   Clear
8:55 AM 37.4 °F 30.8 °F 30.2 °F 75% 29.87 in 10.0 mi West 9.2 mph - N/A   Clear
9:15 AM 37.4 °F 32.1 °F 30.2 °F 75% 29.88 in 10.0 mi West 6.9 mph - N/A   Clear
9:35 AM 39.2 °F 33.6 °F 30.2 °F 70% 29.87 in 10.0 mi West 8.1 mph - N/A   Clear
9:55 AM 42.8 °F 37.5 °F 30.2 °F 61% 29.88 in 10.0 mi West 9.2 mph - N/A   Scattered Clouds
10:15 AM 42.8 °F 37.5 °F 30.2 °F 61% 29.88 in 10.0 mi WNW 9.2 mph - N/A   Mostly Cloudy
10:35 AM 42.8 °F 36.6 °F 30.2 °F 61% 29.89 in 10.0 mi WNW 11.5 mph 19.6 mph N/A   Overcast
10:55 AM 42.8 °F 35.4 °F 30.2 °F 61% 29.89 in 10.0 mi WNW 15.0 mph - N/A   Scattered Clouds
11:15 AM 44.6 °F 37.4 °F 30.2 °F 57% 29.89 in 10.0 mi WNW 16.1 mph 20.7 mph N/A   Scattered Clouds
11:35 AM 46.4 °F 39.8 °F 30.2 °F 53% 29.88 in 10.0 mi WNW 16.1 mph - N/A   Mostly Cloudy
11:55 AM 46.4 °F 40.1 °F 30.2 °F 53% 29.88 in 10.0 mi WNW 15.0 mph - N/A   Scattered Clouds
12:15 PM 48.2 °F - 30.2 °F 50% 29.87 in 10.0 mi WNW 9.2 mph - N/A   Scattered Clouds
12:35 PM 48.2 °F - 30.2 °F 50% 29.87 in 10.0 mi WNW 12.7 mph - N/A   Scattered Clouds
12:55 PM 50.0 °F - 30.2 °F 47% 29.87 in 10.0 mi WNW 18.4 mph 23.0 mph N/A   Clear
1:15 PM 50.0 °F - 30.2 °F 47% 29.87 in 10.0 mi WNW 13.8 mph 24.2 mph N/A   Clear
1:35 PM 50.0 °F - 28.4 °F 43% 29.87 in 10.0 mi WNW 17.3 mph 25.3 mph N/A   Clear
1:55 PM 50.0 °F - 28.4 °F 43% 29.87 in 10.0 mi WNW 20.7 mph 25.3 mph N/A   Clear
2:15 PM 50.0 °F - 28.4 °F 43% 29.88 in 10.0 mi WNW 18.4 mph 27.6 mph N/A   Clear
2:35 PM 50.0 °F - 30.2 °F 47% 29.90 in 10.0 mi NW 20.7 mph 26.5 mph N/A   Clear
2:55 PM 48.2 °F - 28.4 °F 46% 29.90 in 10.0 mi NW 20.7 mph 27.6 mph N/A   Clear
3:15 PM 48.2 °F - 28.4 °F 46% 29.91 in 10.0 mi NW 17.3 mph 25.3 mph N/A   Clear
3:35 PM 48.2 °F - 30.2 °F 50% 29.93 in 10.0 mi NW 17.3 mph 29.9 mph N/A   Clear
3:55 PM 46.4 °F 39.2 °F 30.2 °F 53% 29.94 in 10.0 mi NNW 18.4 mph 28.8 mph N/A   Clear
4:35 PM 44.6 °F 37.4 °F 30.2 °F 57% 29.98 in 10.0 mi NNW 16.1 mph 25.3 mph N/A   Clear
4:55 PM 42.8 °F 36.6 °F 30.2 °F 61% 30.01 in 10.0 mi NNW 11.5 mph - N/A   Clear
5:15 PM 42.8 °F 36.2 °F 30.2 °F 61% 30.02 in 10.0 mi North 12.7 mph - N/A   Mostly Cloudy
5:35 PM 42.8 °F 35.8 °F 30.2 °F 61% 30.03 in 10.0 mi North 13.8 mph - N/A   Overcast
5:55 PM 41.0 °F 33.5 °F 30.2 °F 65% 30.04 in 10.0 mi North 13.8 mph - N/A   Mostly Cloudy
6:15 PM 37.4 °F 30.3 °F 30.2 °F 75% 30.06 in 10.0 mi NNE 10.4 mph 20.7 mph N/A   Mostly Cloudy
6:35 PM 35.6 °F 29.2 °F 28.4 °F 75% 30.08 in 10.0 mi NNE 8.1 mph - N/A   Scattered Clouds
6:55 PM 35.6 °F 27.5 °F 28.4 °F 75% 30.10 in 10.0 mi NNE 11.5 mph 17.3 mph N/A   Scattered Clouds
7:15 PM 33.8 °F 23.9 °F 26.6 °F 75% 30.11 in 10.0 mi North 15.0 mph 21.9 mph N/A   Scattered Clouds
7:35 PM 33.8 °F 26.4 °F 26.6 °F 75% 30.13 in 10.0 mi North 9.2 mph - N/A   Scattered Clouds
7:55 PM 33.8 °F 24.3 °F 26.6 °F 75% 30.14 in 10.0 mi North 13.8 mph - N/A   Scattered Clouds
8:15 PM 33.8 °F 25.8 °F 26.6 °F 75% 30.16 in 10.0 mi NNE 10.4 mph 16.1 mph N/A   Mostly Cloudy
8:35 PM 30.2 °F 20.8 °F 24.8 °F 80% 30.18 in 10.0 mi NNE 11.5 mph - N/A   Mostly Cloudy
8:55 PM 28.4 °F 19.1 °F 21.2 °F 74% 30.19 in 10.0 mi North 10.4 mph - N/A   Clear
9:15 PM 28.4 °F 19.1 °F 19.4 °F 69% 30.21 in 10.0 mi NNE 10.4 mph - N/A   Clear
9:35 PM 26.6 °F 16.2 °F 19.4 °F 74% 30.21 in 10.0 mi NE 11.5 mph - N/A   Clear
9:55 PM 26.6 °F 17.5 °F 15.8 °F 64% 30.22 in 10.0 mi NE 9.2 mph - N/A   Clear
10:15 PM 24.8 °F 16.9 °F 12.2 °F 59% 30.23 in 10.0 mi NE 6.9 mph - N/A   Clear
10:35 PM 24.8 °F 19.1 °F 10.4 °F 54% 30.26 in 10.0 mi NNE 4.6 mph - N/A   Clear
10:55 PM 24.8 °F 20.5 °F 14.0 °F 64% 30.26 in 10.0 mi NNE 3.5 mph - N/A   Clear
11:15 PM 23.0 °F 15.8 °F 12.2 °F 63% 30.26 in 10.0 mi North 5.8 mph - N/A   Clear
11:35 PM 21.2 °F 13.6 °F 10.4 °F 63% 30.26 in 10.0 mi North 5.8 mph - N/A   Clear
11:55 PM 21.2 °F 14.9 °F 10.4 °F 63% 30.26 in 10.0 mi North 4.6 mph - N/A   Clear